Weather in Bilokurakyne

Ukraine / Luhansk Region     49°31′53″N   38°43′20″E
temp.,
°C
wind,
m/s
gust,
m/s
humid.,
%
clouds,
%
prec.,
mm/h
press.,
hPa
HPBL,
m
20 april, tue
tue2000:00+10e2474100 0.0 101381
03:00+10ene357895 0.1 1012156
06:00+9ene4888100 0.0 1011329
09:00+12e5777100 0.0 1010713
12:00+13e6879100 0.3 1006852
15:00+11ese61092100 8.7 1004696
18:00+11se359466 2.4 1002292
21:00+10s7129298 4.9 1002734
21 april, wed
wed2100:00+9s7138995 0.2 1002780
03:00+9w9149099 0.3 1005915
06:00+9sw5119297 0.1 1008757
09:00+10sw698382 0.3 1011753
12:00+13wsw8959100 0.3 10121640
15:00+14wsw7948100 0.3 10132246
18:00+13sw475778 0.1 1015780
21:00+10ssw357435 0.5 101781
22 april, thu
thu2200:00+8ssw37865 0.6 1017143
03:00+7ssw38905 0.6 1018158
06:00+7ssw37925 0.0 1019164
09:00+12sw56675 0.0 1020611
12:00+16sw56515 0.4 10201761
15:00+17sw4643100 0.5 10202251
18:00+14sw2258100 0.0 102039
21:00+11sw226227 0.0 102111
23 april, fri
fri2300:00+10s11685 0.0 102110
03:00+9ssw227133 0.1 102111
06:00+9sw117463 0.0 102211
09:00+14ssw346286 0.0 1022428
12:00+17s444540 0.0 10212209
15:00+15sw245698 0.1 1020130
18:00+15ssw355468 0.0 1019172
21:00+12s336473 0.0 101934
24 april, sat
sat2400:00+12ssw396371 0.0 1018253
03:00+9ssw38787 0.0 1016173
06:00+8s41082100 0.0 1015281
09:00+11ssw5968100 0.0 1014494
12:00+6w71184100 0.4 1016558
15:00+10w695842 0.4 10151564
18:00+9w9115933 0.1 10151438
21:00+5w712580 0.1 1018741